Regional Weather Roundup
Issued by NWS Huntsville, AL

Home | Current Version | Previous Version | Text Only | Print | Product List | Glossary On
Versions: 1 2 3 4 5 6 7 8 9 10 11 12 13 14 15 16 17 18 19 20 21 22 23 24 25 26 27 28 29 30 31 32 33 34 35 36 37 38 39 40 41 42 43 44 45 46 47 48 49 50
000
ASUS44 KHUN 032310
RWRHUN

WEATHER ROUNDUP FOR THE TENNESSEE VALLEY
NATIONAL WEATHER SERVICE HUNTSVILLE AL
600 PM CDT SUN MAY 03 2015

ALZ001>004-040000-
NORTHWEST ALABAMA

CITY           SKY/WX    TMP DP  RH WIND       PRES   REMARKS
COURTLAND HCN    N/A     79 N/A N/A SW7         N/A
BANKHEAD NF      N/A     80  47  31 SW1         N/A
RUSSELLVILLE     N/A     77 N/A N/A MISG        N/A
SHOALS AIRPORT SUNNY     79  48  33 S6        30.09S
$$

ALZ005>007-016-040000-
NORTH CENTRAL ALABAMA

CITY           SKY/WX    TMP DP  RH WIND       PRES   REMARKS
CULLMAN AG STN   N/A     75 N/A N/A SW5         N/A
DECATUR AP     SUNNY     75  55  49 S6        30.10S
HUNTSVILLE AP  MOSUNNY   81  47  30 S12       30.10S
HUN NWS/UAH      N/A     79  44  29 S5          N/A
MERIDIANVILLE  MOSUNNY   77  37  24 SW9       30.11R
REDSTONE ARSN  SUNNY     77  48  36 SW8       30.10R
VINEMONT AP    FAIR      76  49  38 S5        30.13S
$$

ALZ008>010-040000-
NORTHEAST ALABAMA

CITY           SKY/WX    TMP DP  RH WIND       PRES   REMARKS
ALBERTVILLE    PTSUNNY   77  55  47 S6        30.11S
FORT PAYNE     SUNNY     73  41  31 SW6       30.11S
SCOTTSBORO HCN   N/A     77 N/A N/A MISG        N/A
VALLEY HEAD      N/A     75 N/A N/A MISG        N/A
$$

TNZ076-096-097-040000-
SOUTHEASTERN MIDDLE TENNESSEE

CITY           SKY/WX    TMP DP  RH WIND       PRES   REMARKS
TULLAHOMA        N/A     73  46  38 SW6       30.12S
WINCHESTER     SUNNY     77  46  33 SW5       30.11S
$$

...SURROUNDING SITES...

CITY           SKY/WX    TMP DP  RH WIND       PRES   REMARKS
ATLANTA        PTSUNNY   76  46  34 SW7       30.13S
ANNISTON       SUNNY     78  50  37 SW5       30.11S
BIRMINGHAM     MOSUNNY   79  47  32 S7        30.12S
CHATTANOOGA    PTSUNNY   79  42  26 S6        30.11R
CORINTH        FAIR      79  48  34 SE9       30.06S
DALTON         SUNNY     77  50  38 CALM      30.12S
GADSDEN        SUNNY    N/A N/A N/A S6        30.10R
GOLDEN TRNGL   MOSUNNY   81  52  36 S7        30.07S
HALEYVILLE       N/A     77  47  34 MISG      30.13R
JACKSON TN     MOSUNNY   77  48  35 SW12      30.06S
LEWISBURG      FAIR      77  47  34 SW8       30.09R
MEMPHIS        MOSUNNY   80  50  34 S8G16     30.04S
NASHVILLE      MOSUNNY   78  48  34 SW6       30.08S
OXFORD MS      LGT RAIN  77  48  36 SE7       30.08S
ROME           SUNNY     79  47  32 W6        30.10S
SAVANNAH       SUNNY     79  32  18 S7        30.08S
TUPELO         SUNNY     80  50  34 SW9       30.06S
TUSCALOOSA     MOSUNNY   80  50  34 S6        30.09S
$$

...GULF COAST WEATHER...

CITY           SKY/WX    TMP DP  RH WIND       PRES   REMARKS
GULFPORT       SUNNY     76  57  51 SE10      30.10S
PASCAGOULA     SUNNY     75  56  51 S8        30.11S
MOBILE         MOSUNNY   77  50  38 SE9       30.11S
GULF SHORES    CLEAR     74  64  69 E7        30.11S
PENSACOLA      MOSUNNY   75  64  68 SE9       30.11S
DESTIN         SUNNY     76  64  66 S7        30.11S
PANAMA CITY    MOSUNNY   76  65  68 S14       30.11S
APPALACHICOLA  SUNNY     79  58  48 SE8       30.11S
$$



USA.gov is the U.S. government's official web portal to all federal, state and local government web resources and services.